Time,TemperatureF,DewpointF,PressureIn,WindDirection,WindDirectionDegrees,WindSpeedMPH,WindSpeedGustMPH,Humidity,HourlyPrecipIn,Conditions,Clouds,dailyrainin,SoftwareType,DateUTC
2013-11-06 00:00:00,33.9,27.4,30.07,NNW,327,2.0,2.0,77,0.00,,,0.00,Wunderground v.1.15,2013-11-06 06:00:00,
2013-11-06 00:05:00,33.9,27.4,30.07,NW,325,2.0,2.0,77,0.00,,,0.00,Wunderground v.1.15,2013-11-06 06:05:00,
2013-11-06 00:10:00,33.8,27.0,30.06,NW,321,2.0,2.0,76,0.00,,,0.00,Wunderground v.1.15,2013-11-06 06:10:00,
2013-11-06 00:15:00,33.8,27.4,30.07,NNW,332,2.0,2.0,77,0.00,,,0.00,Wunderground v.1.15,2013-11-06 06:15:00,
2013-11-06 00:26:00,33.7,27.3,30.07,NW,306,2.0,4.0,77,0.00,,,0.00,Wunderground v.1.15,2013-11-06 06:26:00,
2013-11-06 00:35:00,33.7,27.3,30.07,NW,317,2.0,3.0,77,0.00,,,0.00,Wunderground v.1.15,2013-11-06 06:35:00,
2013-11-06 00:40:00,33.6,27.2,30.07,NW,316,2.0,2.0,77,0.00,,,0.00,Wunderground v.1.15,2013-11-06 06:40:00,
2013-11-06 00:45:00,33.6,27.2,30.06,NW,321,2.0,2.0,77,0.00,,,0.00,Wunderground v.1.15,2013-11-06 06:45:00,
2013-11-06 00:50:00,33.5,27.1,30.06,NW,319,2.0,2.0,77,0.00,,,0.00,Wunderground v.1.15,2013-11-06 06:50:00,
2013-11-06 00:56:00,33.5,27.1,30.05,NW,323,2.0,2.0,77,0.00,,,0.00,Wunderground v.1.15,2013-11-06 06:56:00,
2013-11-06 01:10:00,33.5,27.1,30.05,NW,321,1.0,2.0,77,0.00,,,0.00,Wunderground v.1.15,2013-11-06 07:10:00,
2013-11-06 01:15:00,33.4,26.6,30.05,NW,313,1.0,2.0,76,0.00,,,0.00,Wunderground v.1.15,2013-11-06 07:15:00,
2013-11-06 01:20:00,33.5,26.7,30.05,NW,324,1.0,2.0,76,0.00,,,0.00,Wunderground v.1.15,2013-11-06 07:20:00,
2013-11-06 01:25:00,33.4,26.6,30.05,NW,324,2.0,2.0,76,0.00,,,0.00,Wunderground v.1.15,2013-11-06 07:25:00,
2013-11-06 01:35:00,33.4,26.6,30.05,NNW,338,1.0,1.0,76,0.00,,,0.00,Wunderground v.1.15,2013-11-06 07:35:00,
2013-11-06 01:41:00,33.4,26.6,30.05,NNW,328,1.0,2.0,76,0.00,,,0.00,Wunderground v.1.15,2013-11-06 07:41:00,
2013-11-06 01:50:00,33.3,26.5,30.05,NNW,329,1.0,1.0,76,0.00,,,0.00,Wunderground v.1.15,2013-11-06 07:50:00,
2013-11-06 01:55:00,33.3,26.9,30.05,NNW,338,1.0,1.0,77,0.00,,,0.00,Wunderground v.1.15,2013-11-06 07:55:00,
2013-11-06 02:00:00,33.2,26.8,30.05,NNW,328,1.0,1.0,77,0.00,,,0.00,Wunderground v.1.15,2013-11-06 08:00:00,
2013-11-06 02:05:00,33.2,27.1,30.05,NW,308,1.0,2.0,78,0.00,,,0.00,Wunderground v.1.15,2013-11-06 08:05:00,
2013-11-06 02:10:00,33.0,27.2,30.06,NW,304,1.0,2.0,79,0.00,,,0.00,Wunderground v.1.15,2013-11-06 08:10:00,
2013-11-06 02:15:00,32.8,27.3,30.06,NNW,336,1.0,2.0,80,0.00,,,0.00,Wunderground v.1.15,2013-11-06 08:15:00,
2013-11-06 02:20:00,32.6,27.7,30.06,NNW,331,1.0,1.0,82,0.00,,,0.00,Wunderground v.1.15,2013-11-06 08:20:00,
2013-11-06 02:25:00,32.3,28.0,30.06,NNW,328,1.0,1.0,84,0.00,,,0.00,Wunderground v.1.15,2013-11-06 08:25:00,
2013-11-06 02:30:00,32.0,28.0,30.06,NNW,327,1.0,2.0,85,0.00,,,0.00,Wunderground v.1.15,2013-11-06 08:30:00,
2013-11-06 02:35:00,31.8,28.1,30.06,NW,321,1.0,2.0,86,0.00,,,0.00,Wunderground v.1.15,2013-11-06 08:35:00,
2013-11-06 02:40:00,31.6,28.2,30.06,NW,321,1.0,1.0,87,0.00,,,0.00,Wunderground v.1.15,2013-11-06 08:40:00,
2013-11-06 02:50:00,31.4,28.3,30.05,NW,309,1.0,1.0,88,0.00,,,0.00,Wunderground v.1.15,2013-11-06 08:50:00,
2013-11-06 02:55:00,31.4,28.3,30.05,NW,309,0.0,1.0,88,0.00,,,0.00,Wunderground v.1.15,2013-11-06 08:55:00,
2013-11-06 03:00:00,31.4,28.0,30.05,NW,309,0.0,0.0,87,0.00,,,0.00,Wunderground v.1.15,2013-11-06 09:00:00,
2013-11-06 03:05:00,31.6,27.6,30.05,NW,325,0.0,0.0,85,0.00,,,0.00,Wunderground v.1.15,2013-11-06 09:05:00,
2013-11-06 03:10:00,31.6,27.6,30.05,NW,325,0.0,0.0,85,0.00,,,0.00,Wunderground v.1.15,2013-11-06 09:10:00,
2013-11-06 03:15:00,31.7,27.4,30.05,NW,325,0.0,0.0,84,0.00,,,0.00,Wunderground v.1.15,2013-11-06 09:15:00,
2013-11-06 03:20:00,31.9,27.6,30.04,NW,325,0.0,1.0,84,0.00,,,0.00,Wunderground v.1.15,2013-11-06 09:20:00,
2013-11-06 03:30:00,32.2,26.7,30.05,NW,308,1.0,1.0,80,0.00,,,0.00,Wunderground v.1.15,2013-11-06 09:30:00,
2013-11-06 03:35:00,32.3,26.5,30.05,NNW,328,1.0,1.0,79,0.00,,,0.00,Wunderground v.1.15,2013-11-06 09:35:00,
2013-11-06 03:40:00,32.4,26.3,30.05,NNW,327,1.0,1.0,78,0.00,,,0.00,Wunderground v.1.15,2013-11-06 09:40:00,
2013-11-06 03:45:00,32.4,26.0,30.05,NNW,331,1.0,1.0,77,0.00,,,0.00,Wunderground v.1.15,2013-11-06 09:45:00,
2013-11-06 03:50:00,32.5,26.4,30.05,NW,319,1.0,1.0,78,0.00,,,0.00,Wunderground v.1.15,2013-11-06 09:50:00,
2013-11-06 04:00:00,32.5,26.1,30.04,NW,317,1.0,1.0,77,0.00,,,0.00,Wunderground v.1.15,2013-11-06 10:00:00,
2013-11-06 04:05:00,32.5,26.4,30.04,NNW,327,1.0,1.0,78,0.00,,,0.00,Wunderground v.1.15,2013-11-06 10:05:00,
2013-11-06 04:10:00,32.4,26.3,30.04,NNW,327,1.0,1.0,78,0.00,,,0.00,Wunderground v.1.15,2013-11-06 10:10:00,
2013-11-06 04:15:00,32.4,26.6,30.04,NW,323,1.0,2.0,79,0.00,,,0.00,Wunderground v.1.15,2013-11-06 10:15:00,
2013-11-06 04:20:00,32.4,26.6,30.03,NNW,329,1.0,2.0,79,0.00,,,0.00,Wunderground v.1.15,2013-11-06 10:20:00,
2013-11-06 04:25:00,32.4,26.6,30.04,NNW,344,1.0,2.0,79,0.00,,,0.00,Wunderground v.1.15,2013-11-06 10:25:00,
2013-11-06 04:30:00,32.4,26.3,30.03,NNW,330,1.0,1.0,78,0.00,,,0.00,Wunderground v.1.15,2013-11-06 10:30:00,
2013-11-06 04:35:00,32.3,26.2,30.03,NW,317,1.0,2.0,78,0.00,,,0.00,Wunderground v.1.15,2013-11-06 10:35:00,
2013-11-06 04:40:00,32.3,26.2,30.04,NW,309,1.0,2.0,78,0.00,,,0.00,Wunderground v.1.15,2013-11-06 10:40:00,
2013-11-06 04:45:00,32.3,26.2,30.03,NW,313,1.0,2.0,78,0.00,,,0.00,Wunderground v.1.15,2013-11-06 10:45:00,
2013-11-06 04:50:00,32.3,26.2,30.04,NW,322,1.0,1.0,78,0.00,,,0.00,Wunderground v.1.15,2013-11-06 10:50:00,
2013-11-06 04:55:00,32.3,25.9,30.04,NW,319,1.0,1.0,77,0.00,,,0.00,Wunderground v.1.15,2013-11-06 10:55:00,
2013-11-06 05:00:00,32.2,25.8,30.03,NW,320,2.0,2.0,77,0.00,,,0.00,Wunderground v.1.15,2013-11-06 11:00:00,
2013-11-06 05:05:00,32.2,25.8,30.03,NNW,340,2.0,2.0,77,0.00,,,0.00,Wunderground v.1.15,2013-11-06 11:05:00,
2013-11-06 05:10:00,32.1,25.7,30.03,NNW,328,2.0,2.0,77,0.00,,,0.00,Wunderground v.1.15,2013-11-06 11:10:00,
2013-11-06 05:15:00,32.1,26.0,30.03,NW,325,1.0,2.0,78,0.00,,,0.00,Wunderground v.1.15,2013-11-06 11:15:00,
2013-11-06 05:20:00,32.1,26.0,30.03,NW,307,1.0,4.0,78,0.00,,,0.00,Wunderground v.1.15,2013-11-06 11:20:00,
2013-11-06 05:25:00,32.0,25.6,30.02,NW,315,2.0,4.0,77,0.00,,,0.00,Wunderground v.1.15,2013-11-06 11:25:00,
2013-11-06 05:30:00,32.0,25.6,30.02,NW,322,2.0,2.0,77,0.00,,,0.00,Wunderground v.1.15,2013-11-06 11:30:00,
2013-11-06 05:35:00,31.9,25.5,30.02,NW,306,1.0,2.0,77,0.00,,,0.00,Wunderground v.1.15,2013-11-06 11:35:00,
2013-11-06 05:45:00,31.9,25.5,30.03,NW,322,2.0,2.0,77,0.00,,,0.00,Wunderground v.1.15,2013-11-06 11:45:00,
2013-11-06 05:50:00,31.8,25.4,30.02,NW,323,2.0,2.0,77,0.00,,,0.00,Wunderground v.1.15,2013-11-06 11:50:00,
2013-11-06 05:55:00,31.7,25.3,30.02,NW,320,2.0,2.0,77,0.00,,,0.00,Wunderground v.1.15,2013-11-06 11:55:00,
2013-11-06 06:00:00,31.7,25.3,30.03,NNW,329,2.0,3.0,77,0.00,,,0.00,Wunderground v.1.15,2013-11-06 12:00:00,
2013-11-06 06:05:00,31.6,25.2,30.03,NNW,328,2.0,3.0,77,0.00,,,0.00,Wunderground v.1.15,2013-11-06 12:05:00,
2013-11-06 06:15:00,31.5,25.4,30.02,NNW,340,1.0,2.0,78,0.00,,,0.00,Wunderground v.1.15,2013-11-06 12:15:00,
2013-11-06 06:20:00,31.5,25.4,30.02,NNW,336,1.0,1.0,78,0.00,,,0.00,Wunderground v.1.15,2013-11-06 12:20:00,
2013-11-06 06:25:00,31.5,25.4,30.02,NW,317,1.0,1.0,78,0.00,,,0.00,Wunderground v.1.15,2013-11-06 12:25:00,
2013-11-06 06:30:00,31.4,25.0,30.02,NW,319,1.0,1.0,77,0.00,,,0.00,Wunderground v.1.15,2013-11-06 12:30:00,
2013-11-06 06:35:00,31.4,25.0,30.02,NW,325,1.0,2.0,77,0.00,,,0.00,Wunderground v.1.15,2013-11-06 12:35:00,
2013-11-06 06:45:00,31.2,24.8,30.02,NW,324,1.0,3.0,77,0.00,,,0.00,Wunderground v.1.15,2013-11-06 12:45:00,
2013-11-06 06:50:00,31.2,24.8,30.02,NNW,331,2.0,2.0,77,0.00,,,0.00,Wunderground v.1.15,2013-11-06 12:50:00,
2013-11-06 06:55:00,31.2,24.8,30.01,NW,321,2.0,2.0,77,0.00,,,0.00,Wunderground v.1.15,2013-11-06 12:55:00,
2013-11-06 07:00:00,31.1,24.7,30.01,NNW,331,2.0,2.0,77,0.00,,,0.00,Wunderground v.1.15,2013-11-06 13:00:00,
2013-11-06 07:05:00,31.1,24.7,30.01,NW,323,2.0,2.0,77,0.00,,,0.00,Wunderground v.1.15,2013-11-06 13:05:00,
2013-11-06 07:10:00,31.0,24.6,30.01,NNW,328,1.0,2.0,77,0.00,,,0.00,Wunderground v.1.15,2013-11-06 13:10:00,
2013-11-06 07:15:00,31.0,24.6,30.01,NW,319,2.0,2.0,77,0.00,,,0.00,Wunderground v.1.15,2013-11-06 13:15:00,
2013-11-06 07:25:00,30.8,24.1,30.01,North,351,2.0,4.0,76,0.00,,,0.00,Wunderground v.1.15,2013-11-06 13:25:00,
2013-11-06 07:30:00,30.8,24.4,30.02,NNW,330,2.0,2.0,77,0.00,,,0.00,Wunderground v.1.15,2013-11-06 13:30:00,
2013-11-06 07:35:00,30.8,24.1,30.01,NW,308,2.0,2.0,76,0.00,,,0.00,Wunderground v.1.15,2013-11-06 13:35:00,
2013-11-06 07:45:00,30.7,24.3,30.02,NW,319,2.0,2.0,77,0.00,,,0.00,Wunderground v.1.15,2013-11-06 13:45:00,
2013-11-06 07:50:00,30.7,24.3,30.02,NNW,327,2.0,2.0,77,0.00,,,0.00,Wunderground v.1.15,2013-11-06 13:50:00,
2013-11-06 07:55:00,30.7,24.3,30.02,NW,310,2.0,2.0,77,0.00,,,0.00,Wunderground v.1.15,2013-11-06 13:55:00,
2013-11-06 08:00:00,30.7,24.3,30.02,NW,322,2.0,2.0,77,0.00,,,0.00,Wunderground v.1.15,2013-11-06 14:00:00,
2013-11-06 08:05:00,30.7,24.3,30.02,WNW,288,2.0,2.0,77,0.00,,,0.00,Wunderground v.1.15,2013-11-06 14:05:00,
2013-11-06 08:10:00,30.7,24.3,30.02,NW,318,2.0,2.0,77,0.00,,,0.00,Wunderground v.1.15,2013-11-06 14:10:00,
2013-11-06 08:15:00,30.9,24.5,30.02,NNW,348,2.0,2.0,77,0.00,,,0.00,Wunderground v.1.15,2013-11-06 14:15:00,
2013-11-06 08:20:00,31.3,24.9,30.02,NNW,332,2.0,5.0,77,0.00,,,0.00,Wunderground v.1.15,2013-11-06 14:20:00,
2013-11-06 08:25:00,31.5,24.8,30.02,NW,325,2.0,5.0,76,0.00,,,0.00,Wunderground v.1.15,2013-11-06 14:25:00,
2013-11-06 08:35:00,31.7,24.7,30.02,NNW,347,3.0,4.0,75,0.00,,,0.00,Wunderground v.1.15,2013-11-06 14:35:00,
2013-11-06 08:40:00,31.8,25.1,30.02,NW,309,3.0,3.0,76,0.00,,,0.00,Wunderground v.1.15,2013-11-06 14:40:00,
2013-11-06 08:45:00,32.1,24.7,30.02,WNW,289,2.0,3.0,74,0.00,,,0.00,Wunderground v.1.15,2013-11-06 14:45:00,
2013-11-06 08:50:00,32.3,24.9,30.02,NNW,334,2.0,2.0,74,0.00,,,0.00,Wunderground v.1.15,2013-11-06 14:50:00,
2013-11-06 08:55:00,32.5,25.1,30.02,West,277,2.0,2.0,74,0.00,,,0.00,Wunderground v.1.15,2013-11-06 14:55:00,
2013-11-06 09:00:00,32.5,24.8,30.02,NNW,327,3.0,3.0,73,0.00,,,0.00,Wunderground v.1.15,2013-11-06 15:00:00,
2013-11-06 09:10:00,33.0,25.0,30.03,NNW,333,2.0,2.0,72,0.00,,,0.00,Wunderground v.1.15,2013-11-06 15:10:00,
2013-11-06 09:15:00,32.9,25.2,30.03,WNW,288,2.0,2.0,73,0.00,,,0.00,Wunderground v.1.15,2013-11-06 15:15:00,
2013-11-06 09:20:00,33.0,25.0,30.03,NW,304,3.0,4.0,72,0.00,,,0.00,Wunderground v.1.15,2013-11-06 15:20:00,
2013-11-06 09:25:00,33.1,24.7,30.02,WNW,302,2.0,4.0,71,0.00,,,0.00,Wunderground v.1.15,2013-11-06 15:25:00,
2013-11-06 09:30:00,33.0,24.6,30.02,NW,315,3.0,3.0,71,0.00,,,0.00,Wunderground v.1.15,2013-11-06 15:30:00,
2013-11-06 09:40:00,33.4,25.0,30.02,WNW,303,2.0,2.0,71,0.00,,,0.00,Wunderground v.1.15,2013-11-06 15:40:00,
2013-11-06 09:45:00,33.5,24.8,30.03,NW,323,2.0,3.0,70,0.00,,,0.00,Wunderground v.1.15,2013-11-06 15:45:00,
2013-11-06 09:51:00,33.1,24.0,30.02,NNW,342,3.0,3.0,69,0.00,,,0.00,Wunderground v.1.15,2013-11-06 15:51:00,
2013-11-06 10:00:00,33.3,24.6,30.02,WNW,302,2.0,2.0,70,0.00,,,0.00,Wunderground v.1.15,2013-11-06 16:00:00,
2013-11-06 10:06:00,33.6,24.9,30.02,NW,305,2.0,2.0,70,0.00,,,0.00,Wunderground v.1.15,2013-11-06 16:06:00,
2013-11-06 10:15:00,33.5,23.7,30.03,NW,315,3.0,4.0,67,0.00,,,0.00,Wunderground v.1.15,2013-11-06 16:15:00,
2013-11-06 10:20:00,33.5,24.4,30.03,NW,305,3.0,3.0,69,0.00,,,0.00,Wunderground v.1.15,2013-11-06 16:20:00,
2013-11-06 10:25:00,33.9,24.1,30.03,WNW,303,3.0,3.0,67,0.00,,,0.00,Wunderground v.1.15,2013-11-06 16:25:00,
2013-11-06 10:30:00,34.1,24.3,30.03,WNW,298,2.0,2.0,67,0.00,,,0.00,Wunderground v.1.15,2013-11-06 16:30:00,
2013-11-06 10:35:00,34.5,24.7,30.03,WNW,292,2.0,2.0,67,0.00,,,0.00,Wunderground v.1.15,2013-11-06 16:35:00,
2013-11-06 10:40:00,35.0,24.8,30.03,NNW,329,2.0,6.0,66,0.00,,,0.00,Wunderground v.1.15,2013-11-06 16:40:00,
2013-11-06 10:45:00,34.6,24.0,30.03,NW,325,2.0,6.0,65,0.00,,,0.00,Wunderground v.1.15,2013-11-06 16:45:00,
2013-11-06 10:55:00,34.1,23.6,30.03,WNW,292,3.0,4.0,65,0.00,,,0.00,Wunderground v.1.15,2013-11-06 16:55:00,
2013-11-06 11:05:00,34.5,23.9,30.03,NW,320,3.0,4.0,65,0.00,,,0.00,Wunderground v.1.15,2013-11-06 17:05:00,
2013-11-06 11:10:00,34.6,23.3,30.03,NNW,334,3.0,3.0,63,0.00,,,0.00,Wunderground v.1.15,2013-11-06 17:10:00,
2013-11-06 11:15:00,34.8,23.5,30.03,WNW,298,2.0,3.0,63,0.00,,,0.00,Wunderground v.1.15,2013-11-06 17:15:00,
2013-11-06 11:20:00,35.2,23.9,30.03,NW,318,2.0,2.0,63,0.00,,,0.00,Wunderground v.1.15,2013-11-06 17:20:00,
2013-11-06 11:25:00,34.8,22.3,30.03,NW,313,2.0,2.0,60,0.00,,,0.00,Wunderground v.1.15,2013-11-06 17:25:00,
2013-11-06 11:30:00,34.6,22.5,30.03,NW,322,3.0,4.0,61,0.00,,,0.00,Wunderground v.1.15,2013-11-06 17:30:00,
2013-11-06 11:35:00,34.8,23.1,30.03,NW,315,2.0,4.0,62,0.00,,,0.00,Wunderground v.1.15,2013-11-06 17:35:00,
2013-11-06 11:40:00,34.5,22.4,30.03,NW,318,3.0,3.0,61,0.00,,,0.00,Wunderground v.1.15,2013-11-06 17:40:00,
2013-11-06 11:46:00,34.6,22.5,30.03,NNW,329,3.0,3.0,61,0.00,,,0.00,Wunderground v.1.15,2013-11-06 17:46:00,
2013-11-06 11:55:00,35.4,22.9,30.03,NW,304,2.0,4.0,60,0.00,,,0.00,Wunderground v.1.15,2013-11-06 17:55:00,
2013-11-06 12:00:00,35.7,22.4,30.03,WNW,300,2.0,2.0,58,0.00,,,0.00,Wunderground v.1.15,2013-11-06 18:00:00,
2013-11-06 12:10:00,35.3,22.4,30.03,NW,311,3.0,3.0,59,0.00,,,0.00,Wunderground v.1.15,2013-11-06 18:10:00,
2013-11-06 12:15:00,35.5,21.8,30.03,WNW,302,3.0,3.0,57,0.00,,,0.00,Wunderground v.1.15,2013-11-06 18:15:00,
2013-11-06 12:20:00,35.7,21.9,30.03,NW,309,2.0,2.0,57,0.00,,,0.00,Wunderground v.1.15,2013-11-06 18:20:00,
2013-11-06 12:25:00,35.5,22.2,30.03,North,350,2.0,2.0,58,0.00,,,0.00,Wunderground v.1.15,2013-11-06 18:25:00,
2013-11-06 12:30:00,35.6,22.7,30.03,WNW,294,2.0,3.0,59,0.00,,,0.00,Wunderground v.1.15,2013-11-06 18:30:00,
2013-11-06 12:35:00,35.3,22.0,30.03,NNW,340,3.0,3.0,58,0.00,,,0.00,Wunderground v.1.15,2013-11-06 18:35:00,
2013-11-06 12:40:00,35.5,22.2,30.03,NNW,329,3.0,3.0,58,0.00,,,0.00,Wunderground v.1.15,2013-11-06 18:40:00,
2013-11-06 12:45:00,35.6,22.3,30.03,West,278,3.0,3.0,58,0.00,,,0.00,Wunderground v.1.15,2013-11-06 18:45:00,
2013-11-06 12:51:00,35.6,21.9,30.03,NW,306,3.0,3.0,57,0.00,,,0.00,Wunderground v.1.15,2013-11-06 18:51:00,
2013-11-06 13:00:00,35.5,21.3,30.03,NW,313,3.0,3.0,56,0.00,,,0.00,Wunderground v.1.15,2013-11-06 19:00:00,
2013-11-06 13:05:00,35.9,21.3,30.03,NNW,340,2.0,5.0,55,0.00,,,0.00,Wunderground v.1.15,2013-11-06 19:05:00,
2013-11-06 13:10:00,36.1,21.0,30.04,NW,318,2.0,4.0,54,0.00,,,0.00,Wunderground v.1.15,2013-11-06 19:10:00,
2013-11-06 13:20:00,35.6,20.6,30.04,North,11,3.0,3.0,54,0.00,,,0.00,Wunderground v.1.15,2013-11-06 19:20:00,
2013-11-06 13:25:00,35.2,20.2,30.04,NNW,331,3.0,4.0,54,0.00,,,0.00,Wunderground v.1.15,2013-11-06 19:25:00,
2013-11-06 13:30:00,35.2,20.6,30.04,West,276,3.0,3.0,55,0.00,,,0.00,Wunderground v.1.15,2013-11-06 19:30:00,
2013-11-06 13:36:00,35.1,20.5,30.05,WNW,294,3.0,3.0,55,0.00,,,0.00,Wunderground v.1.15,2013-11-06 19:36:00,
2013-11-06 13:45:00,35.2,20.6,30.05,North,360,3.0,6.0,55,0.00,,,0.00,Wunderground v.1.15,2013-11-06 19:45:00,
2013-11-06 13:50:00,34.8,20.7,30.05,NW,322,3.0,3.0,56,0.00,,,0.00,Wunderground v.1.15,2013-11-06 19:50:00,
2013-11-06 13:55:00,35.0,20.9,30.05,NNW,327,3.0,3.0,56,0.00,,,0.00,Wunderground v.1.15,2013-11-06 19:55:00,
2013-11-06 14:00:00,35.2,21.5,30.05,WNW,286,2.0,2.0,57,0.00,,,0.00,Wunderground v.1.15,2013-11-06 20:00:00,
2013-11-06 14:05:00,35.3,20.7,30.05,WNW,296,2.0,2.0,55,0.00,,,0.00,Wunderground v.1.15,2013-11-06 20:05:00,
2013-11-06 14:10:00,35.0,20.4,30.05,North,5,3.0,4.0,55,0.00,,,0.00,Wunderground v.1.15,2013-11-06 20:10:00,
2013-11-06 14:16:00,34.7,21.0,30.05,WNW,298,3.0,4.0,57,0.00,,,0.00,Wunderground v.1.15,2013-11-06 20:16:00,
2013-11-06 14:25:00,34.5,20.8,30.06,NW,319,2.0,4.0,57,0.00,,,0.00,Wunderground v.1.15,2013-11-06 20:25:00,
2013-11-06 14:30:00,34.4,21.1,30.06,NW,313,2.0,3.0,58,0.00,,,0.00,Wunderground v.1.15,2013-11-06 20:30:00,
2013-11-06 14:35:00,34.4,20.7,30.06,NW,306,2.0,3.0,57,0.00,,,0.00,Wunderground v.1.15,2013-11-06 20:35:00,
2013-11-06 14:40:00,34.2,20.5,30.06,NW,310,3.0,3.0,57,0.00,,,0.00,Wunderground v.1.15,2013-11-06 20:40:00,
2013-11-06 14:45:00,34.1,20.9,30.06,NW,315,2.0,3.0,58,0.00,,,0.00,Wunderground v.1.15,2013-11-06 20:45:00,
2013-11-06 14:50:00,34.1,21.3,30.06,NW,309,2.0,2.0,59,0.00,,,0.00,Wunderground v.1.15,2013-11-06 20:50:00,
2013-11-06 14:55:00,34.1,21.7,30.07,NNW,348,2.0,3.0,60,0.00,,,0.00,Wunderground v.1.15,2013-11-06 20:55:00,
2013-11-06 15:05:00,34.1,21.3,30.07,NW,310,2.0,2.0,59,0.00,,,0.00,Wunderground v.1.15,2013-11-06 21:05:00,
2013-11-06 15:10:00,34.0,21.6,30.07,NNW,330,2.0,2.0,60,0.00,,,0.00,Wunderground v.1.15,2013-11-06 21:10:00,
2013-11-06 15:15:00,33.9,21.9,30.08,NW,323,2.0,2.0,61,0.00,,,0.00,Wunderground v.1.15,2013-11-06 21:15:00,
2013-11-06 15:20:00,33.6,21.6,30.08,NW,314,2.0,2.0,61,0.00,,,0.00,Wunderground v.1.15,2013-11-06 21:20:00,
2013-11-06 15:25:00,33.4,21.4,30.08,NNW,343,2.0,4.0,61,0.00,,,0.00,Wunderground v.1.15,2013-11-06 21:25:00,
2013-11-06 15:30:00,33.3,21.3,30.08,NW,312,3.0,3.0,61,0.00,,,0.00,Wunderground v.1.15,2013-11-06 21:30:00,
2013-11-06 15:35:00,33.2,20.8,30.08,NW,306,3.0,3.0,60,0.00,,,0.00,Wunderground v.1.15,2013-11-06 21:35:00,
2013-11-06 15:45:00,32.9,20.9,30.08,NNW,331,3.0,4.0,61,0.00,,,0.00,Wunderground v.1.15,2013-11-06 21:45:00,
2013-11-06 15:50:00,32.7,21.1,30.09,NW,326,2.0,2.0,62,0.00,,,0.00,Wunderground v.1.15,2013-11-06 21:50:00,
2013-11-06 15:55:00,32.6,21.4,30.09,NW,321,2.0,2.0,63,0.00,,,0.00,Wunderground v.1.15,2013-11-06 21:55:00,
2013-11-06 16:00:00,32.5,20.9,30.09,NW,318,3.0,4.0,62,0.00,,,0.00,Wunderground v.1.15,2013-11-06 22:00:00,
2013-11-06 16:05:00,32.3,21.1,30.09,NW,323,3.0,4.0,63,0.00,,,0.00,Wunderground v.1.15,2013-11-06 22:05:00,
2013-11-06 16:10:00,32.3,21.5,30.09,NW,310,2.0,2.0,64,0.00,,,0.00,Wunderground v.1.15,2013-11-06 22:10:00,
2013-11-06 16:20:00,32.0,21.2,30.10,NW,317,2.0,2.0,64,0.00,,,0.00,Wunderground v.1.15,2013-11-06 22:20:00,
2013-11-06 16:25:00,31.9,21.1,30.10,NW,325,1.0,2.0,64,0.00,,,0.00,Wunderground v.1.15,2013-11-06 22:25:00,
2013-11-06 16:30:00,31.7,21.3,30.10,NW,318,1.0,1.0,65,0.00,,,0.00,Wunderground v.1.15,2013-11-06 22:30:00,
2013-11-06 16:35:00,31.6,21.2,30.10,West,280,1.0,1.0,65,0.00,,,0.00,Wunderground v.1.15,2013-11-06 22:35:00,
2013-11-06 16:40:00,31.6,21.2,30.10,NW,322,1.0,1.0,65,0.00,,,0.00,Wunderground v.1.15,2013-11-06 22:40:00,
2013-11-06 16:45:00,31.5,21.1,30.10,West,281,1.0,1.0,65,0.00,,,0.00,Wunderground v.1.15,2013-11-06 22:45:00,
2013-11-06 16:55:00,31.3,21.3,30.10,WNW,300,0.0,1.0,66,0.00,,,0.00,Wunderground v.1.15,2013-11-06 22:55:00,
2013-11-06 17:00:00,31.1,21.1,30.10,WNW,300,0.0,0.0,66,0.00,,,0.00,Wunderground v.1.15,2013-11-06 23:00:00,
2013-11-06 17:05:00,31.0,21.3,30.10,NW,325,0.0,0.0,67,0.00,,,0.00,Wunderground v.1.15,2013-11-06 23:05:00,
2013-11-06 17:10:00,30.8,21.1,30.11,NW,325,0.0,0.0,67,0.00,,,0.00,Wunderground v.1.15,2013-11-06 23:10:00,
2013-11-06 17:15:00,30.5,21.2,30.11,NW,325,0.0,0.0,68,0.00,,,0.00,Wunderground v.1.15,2013-11-06 23:15:00,
2013-11-06 17:20:00,30.2,21.2,30.11,NW,325,0.0,1.0,69,0.00,,,0.00,Wunderground v.1.15,2013-11-06 23:20:00,
2013-11-06 17:25:00,29.9,21.0,30.11,NW,325,0.0,1.0,69,0.00,,,0.00,Wunderground v.1.15,2013-11-06 23:25:00,
2013-11-06 17:31:00,29.7,21.1,30.11,NW,325,0.0,0.0,70,0.00,,,0.00,Wunderground v.1.15,2013-11-06 23:31:00,
2013-11-06 17:36:00,29.4,20.8,30.11,NW,325,0.0,0.0,70,0.00,,,0.00,Wunderground v.1.15,2013-11-06 23:36:00,
2013-11-06 17:45:00,29.0,21.1,30.11,NW,325,0.0,0.0,72,0.00,,,0.00,Wunderground v.1.15,2013-11-06 23:45:00,
2013-11-06 17:50:00,28.8,20.9,30.11,NW,325,0.0,0.0,72,0.00,,,0.00,Wunderground v.1.15,2013-11-06 23:50:00,
2013-11-06 17:55:00,28.7,21.1,30.12,NW,325,0.0,0.0,73,0.00,,,0.00,Wunderground v.1.15,2013-11-06 23:55:00,
2013-11-06 18:05:00,28.3,21.1,30.12,NW,325,0.0,0.0,74,0.00,,,0.00,Wunderground v.1.15,2013-11-07 00:05:00,
2013-11-06 18:10:00,28.3,21.4,30.12,NW,325,0.0,0.0,75,0.00,,,0.00,Wunderground v.1.15,2013-11-07 00:10:00,
2013-11-06 18:15:00,28.1,21.5,30.12,NW,325,0.0,0.0,76,0.00,,,0.00,Wunderground v.1.15,2013-11-07 00:15:00,
2013-11-06 18:20:00,28.0,21.4,30.12,NW,325,0.0,0.0,76,0.00,,,0.00,Wunderground v.1.15,2013-11-07 00:20:00,
2013-11-06 18:25:00,27.9,21.6,30.12,NW,325,0.0,0.0,77,0.00,,,0.00,Wunderground v.1.15,2013-11-07 00:25:00,
2013-11-06 18:30:00,27.7,21.4,30.12,NW,325,0.0,0.0,77,0.00,,,0.00,Wunderground v.1.15,2013-11-07 00:30:00,
2013-11-06 18:35:00,27.6,21.3,30.13,NW,325,0.0,0.0,77,0.00,,,0.00,Wunderground v.1.15,2013-11-07 00:35:00,
2013-11-06 18:40:00,27.4,21.1,30.12,NW,325,0.0,0.0,77,0.00,,,0.00,Wunderground v.1.15,2013-11-07 00:40:00,
2013-11-06 18:50:00,27.2,21.5,30.12,NW,325,0.0,0.0,79,0.00,,,0.00,Wunderground v.1.15,2013-11-07 00:50:00,
2013-11-06 18:55:00,27.1,21.2,30.13,NW,325,0.0,0.0,78,0.00,,,0.00,Wunderground v.1.15,2013-11-07 00:55:00,
2013-11-06 19:00:00,26.9,21.3,30.13,NW,325,0.0,0.0,79,0.00,,,0.00,Wunderground v.1.15,2013-11-07 01:00:00,
2013-11-06 19:05:00,26.7,21.1,30.12,NW,325,0.0,0.0,79,0.00,,,0.00,Wunderground v.1.15,2013-11-07 01:05:00,
2013-11-06 19:15:00,26.5,21.5,30.12,NW,325,0.0,0.0,81,0.00,,,0.00,Wunderground v.1.15,2013-11-07 01:15:00,
2013-11-06 19:20:00,26.5,21.2,30.13,NW,325,0.0,0.0,80,0.00,,,0.00,Wunderground v.1.15,2013-11-07 01:20:00,
2013-11-06 19:25:00,26.5,21.2,30.13,NW,325,0.0,0.0,80,0.00,,,0.00,Wunderground v.1.15,2013-11-07 01:25:00,
2013-11-06 19:30:00,26.5,21.2,30.13,NW,325,0.0,0.0,80,0.00,,,0.00,Wunderground v.1.15,2013-11-07 01:30:00,
2013-11-06 19:35:00,26.5,21.2,30.13,NW,325,0.0,0.0,80,0.00,,,0.00,Wunderground v.1.15,2013-11-07 01:35:00,
2013-11-06 19:40:00,26.5,21.5,30.13,NW,325,0.0,0.0,81,0.00,,,0.00,Wunderground v.1.15,2013-11-07 01:40:00,
2013-11-06 19:45:00,26.7,21.4,30.13,NW,325,0.0,0.0,80,0.00,,,0.00,Wunderground v.1.15,2013-11-07 01:45:00,
2013-11-06 19:55:00,26.9,21.6,30.13,NW,325,0.0,0.0,80,0.00,,,0.00,Wunderground v.1.15,2013-11-07 01:55:00,
2013-11-06 20:00:00,26.8,21.2,30.14,NW,325,0.0,0.0,79,0.00,,,0.00,Wunderground v.1.15,2013-11-07 02:00:00,
2013-11-06 20:05:00,26.9,21.6,30.14,NW,325,0.0,0.0,80,0.00,,,0.00,Wunderground v.1.15,2013-11-07 02:05:00,
2013-11-06 20:10:00,27.0,21.7,30.14,NW,325,0.0,0.0,80,0.00,,,0.00,Wunderground v.1.15,2013-11-07 02:10:00,
2013-11-06 20:15:00,27.2,21.5,30.14,NW,325,0.0,0.0,79,0.00,,,0.00,Wunderground v.1.15,2013-11-07 02:15:00,
2013-11-06 20:25:00,27.5,21.8,30.14,NW,325,0.0,0.0,79,0.00,,,0.00,Wunderground v.1.15,2013-11-07 02:25:00,
2013-11-06 20:30:00,27.7,22.0,30.14,NW,325,0.0,0.0,79,0.00,,,0.00,Wunderground v.1.15,2013-11-07 02:30:00,
2013-11-06 20:35:00,27.9,21.9,30.14,NW,325,0.0,0.0,78,0.00,,,0.00,Wunderground v.1.15,2013-11-07 02:35:00,
2013-11-06 20:40:00,28.0,22.0,30.15,NW,325,0.0,0.0,78,0.00,,,0.00,Wunderground v.1.15,2013-11-07 02:40:00,
2013-11-06 20:45:00,28.1,22.1,30.15,NW,325,0.0,0.0,78,0.00,,,0.00,Wunderground v.1.15,2013-11-07 02:45:00,
2013-11-06 20:50:00,28.3,22.3,30.15,NW,325,0.0,0.0,78,0.00,,,0.00,Wunderground v.1.15,2013-11-07 02:50:00,
2013-11-06 20:55:00,28.4,22.4,30.15,NW,325,0.0,0.0,78,0.00,,,0.00,Wunderground v.1.15,2013-11-07 02:55:00,
2013-11-06 21:00:00,28.6,22.6,30.15,NW,325,0.0,0.0,78,0.00,,,0.00,Wunderground v.1.15,2013-11-07 03:00:00,
2013-11-06 21:06:00,28.7,22.4,30.15,NW,325,0.0,0.0,77,0.00,,,0.00,Wunderground v.1.15,2013-11-07 03:06:00,
2013-11-06 21:15:00,28.8,22.5,30.15,NW,325,0.0,0.0,77,0.00,,,0.00,Wunderground v.1.15,2013-11-07 03:15:00,
2013-11-06 21:20:00,28.9,22.6,30.15,NW,325,0.0,0.0,77,0.00,,,0.00,Wunderground v.1.15,2013-11-07 03:20:00,
2013-11-06 21:25:00,28.8,22.5,30.15,NW,325,0.0,0.0,77,0.00,,,0.00,Wunderground v.1.15,2013-11-07 03:25:00,
2013-11-06 21:30:00,28.8,22.5,30.16,NW,325,0.0,0.0,77,0.00,,,0.00,Wunderground v.1.15,2013-11-07 03:30:00,
2013-11-06 21:35:00,28.6,22.3,30.16,NW,325,0.0,0.0,77,0.00,,,0.00,Wunderground v.1.15,2013-11-07 03:35:00,
2013-11-06 21:40:00,28.4,22.1,30.16,NW,325,0.0,0.0,77,0.00,,,0.00,Wunderground v.1.15,2013-11-07 03:40:00,
2013-11-06 21:45:00,28.2,22.2,30.16,NW,325,0.0,0.0,78,0.00,,,0.00,Wunderground v.1.15,2013-11-07 03:45:00,
2013-11-06 21:50:00,28.1,22.1,30.16,NW,325,0.0,0.0,78,0.00,,,0.00,Wunderground v.1.15,2013-11-07 03:50:00,
2013-11-06 21:55:00,27.9,22.2,30.16,NW,325,0.0,0.0,79,0.00,,,0.00,Wunderground v.1.15,2013-11-07 03:55:00,
2013-11-06 22:00:00,27.7,22.0,30.16,NW,325,0.0,0.0,79,0.00,,,0.00,Wunderground v.1.15,2013-11-07 04:00:00,
2013-11-06 22:05:00,27.6,21.9,30.16,NW,325,0.0,0.0,79,0.00,,,0.00,Wunderground v.1.15,2013-11-07 04:05:00,
2013-11-06 22:11:00,27.5,22.1,30.16,NW,325,0.0,0.0,80,0.00,,,0.00,Wunderground v.1.15,2013-11-07 04:11:00,
2013-11-06 22:20:00,27.2,21.8,30.16,NW,325,0.0,0.0,80,0.00,,,0.00,Wunderground v.1.15,2013-11-07 04:20:00,
2013-11-06 22:25:00,27.1,21.7,30.16,NW,325,0.0,0.0,80,0.00,,,0.00,Wunderground v.1.15,2013-11-07 04:25:00,
2013-11-06 22:30:00,27.0,21.9,30.16,NW,325,0.0,0.0,81,0.00,,,0.00,Wunderground v.1.15,2013-11-07 04:30:00,
2013-11-06 22:35:00,27.0,22.2,30.16,NW,325,0.0,0.0,82,0.00,,,0.00,Wunderground v.1.15,2013-11-07 04:35:00,
2013-11-06 22:45:00,26.9,22.1,30.16,NW,325,0.0,0.0,82,0.00,,,0.00,Wunderground v.1.15,2013-11-07 04:45:00,
2013-11-06 22:50:00,26.9,21.8,30.16,NW,325,0.0,0.0,81,0.00,,,0.00,Wunderground v.1.15,2013-11-07 04:50:00,
2013-11-06 22:55:00,26.8,21.8,30.16,NW,325,0.0,0.0,81,0.00,,,0.00,Wunderground v.1.15,2013-11-07 04:55:00,
2013-11-06 23:00:00,26.8,21.8,30.15,NW,325,0.0,0.0,81,0.00,,,0.00,Wunderground v.1.15,2013-11-07 05:00:00,
2013-11-06 23:05:00,26.8,21.8,30.16,NW,325,0.0,0.0,81,0.00,,,0.00,Wunderground v.1.15,2013-11-07 05:05:00,
2013-11-06 23:10:00,26.8,21.8,30.15,NW,325,0.0,1.0,81,0.00,,,0.00,Wunderground v.1.15,2013-11-07 05:10:00,
2013-11-06 23:15:00,26.9,21.6,30.15,NW,325,0.0,1.0,80,0.00,,,0.00,Wunderground v.1.15,2013-11-07 05:15:00,
2013-11-06 23:20:00,26.9,21.6,30.15,NW,325,1.0,1.0,80,0.00,,,0.00,Wunderground v.1.15,2013-11-07 05:20:00,
2013-11-06 23:25:00,27.0,21.4,30.15,NW,323,1.0,1.0,79,0.00,,,0.00,Wunderground v.1.15,2013-11-07 05:25:00,
2013-11-06 23:30:00,27.2,21.2,30.15,NW,323,1.0,1.0,78,0.00,,,0.00,Wunderground v.1.15,2013-11-07 05:30:00,
2013-11-06 23:35:00,27.3,21.3,30.16,NW,323,1.0,1.0,78,0.00,,,0.00,Wunderground v.1.15,2013-11-07 05:35:00,
2013-11-06 23:40:00,27.3,21.3,30.15,NW,323,1.0,1.0,78,0.00,,,0.00,Wunderground v.1.15,2013-11-07 05:40:00,
2013-11-06 23:45:00,27.2,21.2,30.16,NW,323,1.0,1.0,78,0.00,,,0.00,Wunderground v.1.15,2013-11-07 05:45:00,
2013-11-06 23:50:00,27.2,20.9,30.16,NW,323,1.0,1.0,77,0.00,,,0.00,Wunderground v.1.15,2013-11-07 05:50:00,
2013-11-06 23:55:00,27.2,20.9,30.16,NW,323,1.0,1.0,77,0.00,,,0.00,Wunderground v.1.15,2013-11-07 05:55:00,